EN

Hourly Weather Oyugis

Today, 23 April, Friday

Time Temperature Precipitation Wind Pressure Humidity
00:00 +19°C° 0.2 mm 1 mps 641 mmHg 96%
01:00 +19°C° 0.2 mm 1 mps 641 mmHg 96%
02:00 +19°C° 0.2 mm 1 mps 640 mmHg 95%
03:00 +18°C° 0 mm 1 mps 640 mmHg 95%
04:00 +18°C° 0 mm 1 mps 640 mmHg 95%
05:00 +18°C° 0 mm 1 mps 640 mmHg 94%
06:00 +19°C° 0 mm 1 mps 641 mmHg 89%
07:00 +21°C° 0 mm 1 mps 642 mmHg 83%
08:00 +22°C° 0 mm 1 mps 642 mmHg 77%
09:00 +24°C° 0.1 mm 1 mps 642 mmHg 71%
10:00 +25°C° 0.1 mm 1 mps 642 mmHg 65%
11:00 +27°C° 0.1 mm 2 mps 642 mmHg 59%
12:00 +26°C° 0.8 mm 2 mps 642 mmHg 67%
13:00 +25°C° 0.8 mm 2 mps 641 mmHg 74%
14:00 +24°C° 0.8 mm 2 mps 640 mmHg 82%
15:00 +23°C° 2.6 mm 2 mps 640 mmHg 87%
16:00 +21°C° 2.6 mm 2 mps 640 mmHg 91%
17:00 +19°C° 2.6 mm 2 mps 640 mmHg 96%
18:00 +19°C° 1.6 mm 2 mps 640 mmHg 97%
19:00 +19°C° 1.6 mm 2 mps 641 mmHg 97%
20:00 +19°C° 1.6 mm 1 mps 641 mmHg 98%
21:00 +19°C° 0.2 mm 1 mps 641 mmHg 97%
22:00 +18°C° 0.2 mm 2 mps 641 mmHg 96%
23:00 +17°C° 0.2 mm 2 mps 640 mmHg 96%

Tomorrow, 24 April, Saturday

Time Temperature Precipitation Wind Pressure Humidity
00:00 +17°C° 0 mm 2 mps 640 mmHg 95%
01:00 +17°C° 0 mm 2 mps 640 mmHg 94%
02:00 +18°C° 0 mm 1 mps 639 mmHg 93%
03:00 +18°C° 0 mm 1 mps 639 mmHg 93%
04:00 +18°C° 0 mm 1 mps 640 mmHg 93%
05:00 +16°C° 0 mm 1 mps 640 mmHg 93%
06:00 +19°C° 0 mm 1 mps 640 mmHg 86%
07:00 +21°C° 0 mm 1 mps 641 mmHg 79%
08:00 +23°C° 0 mm 1 mps 642 mmHg 72%
09:00 +24°C° 0 mm 1 mps 642 mmHg 67%
10:00 +26°C° 0 mm 2 mps 642 mmHg 61%
11:00 +28°C° 0 mm 2 mps 642 mmHg 56%
12:00 +27°C° 0.7 mm 2 mps 641 mmHg 62%
13:00 +26°C° 0.7 mm 2 mps 640 mmHg 69%
14:00 +25°C° 0.7 mm 2 mps 640 mmHg 75%
15:00 +23°C° 2.5 mm 2 mps 640 mmHg 82%
16:00 +21°C° 2.5 mm 2 mps 639 mmHg 89%
17:00 +19°C° 2.5 mm 2 mps 639 mmHg 96%
18:00 +19°C° 1 mm 2 mps 640 mmHg 96%
19:00 +18°C° 1 mm 2 mps 640 mmHg 96%
20:00 +18°C° 1 mm 2 mps 641 mmHg 96%
21:00 +18°C° 0.4 mm 2 mps 641 mmHg 95%
22:00 +18°C° 0.4 mm 2 mps 641 mmHg 95%
23:00 +18°C° 0.4 mm 2 mps 641 mmHg 94%

Day after tomorrow, 25 April, Sunday

Time Temperature Precipitation Wind Pressure Humidity
00:00 +19°C° 0.1 mm 1 mps 640 mmHg 94%
01:00 +19°C° 0.1 mm 1 mps 640 mmHg 94%
02:00 +18°C° 0.1 mm 1 mps 639 mmHg 94%
03:00 +18°C° 0 mm 1 mps 640 mmHg 94%
04:00 +18°C° 0 mm 1 mps 640 mmHg 93%
05:00 +18°C° 0 mm 1 mps 640 mmHg 93%
06:00 +19°C° 0 mm 1 mps 641 mmHg 88%
07:00 +21°C° 0 mm 1 mps 641 mmHg 84%
08:00 +20°C° 0 mm 0 mps 642 mmHg 79%
09:00 +24°C° 0.2 mm 1 mps 642 mmHg 73%
10:00 +25°C° 0.2 mm 1 mps 642 mmHg 68%
11:00 +27°C° 0.2 mm 2 mps 642 mmHg 62%
12:00 +26°C° 0.7 mm 2 mps 641 mmHg 69%
13:00 +25°C° 0.7 mm 2 mps 641 mmHg 76%
14:00 +24°C° 0.7 mm 2 mps 640 mmHg 83%
15:00 +23°C° 2.2 mm 1 mps 640 mmHg 88%
16:00 +21°C° 2.2 mm 1 mps 639 mmHg 92%
17:00 +20°C° 2.2 mm 1 mps 639 mmHg 96%
18:00 +20°C° 2 mm 1 mps 640 mmHg 96%
19:00 +20°C° 2 mm 1 mps 640 mmHg 97%
20:00 +19°C° 2 mm 1 mps 641 mmHg 97%
21:00 +19°C° 1.1 mm 1 mps 641 mmHg 97%
22:00 +19°C° 1.1 mm 1 mps 641 mmHg 97%
23:00 +19°C° 1.1 mm 1 mps 641 mmHg 97%

26 April, Monday

Time Temperature Precipitation Wind Pressure Humidity
00:00 +19°C° 1.4 mm 1 mps 641 mmHg 98%
01:00 +19°C° 1.4 mm 1 mps 641 mmHg 98%
02:00 +18°C° 1.4 mm 1 mps 640 mmHg 99%
03:00 +19°C° 0.4 mm 1 mps 641 mmHg 98%
04:00 +19°C° 0.4 mm 1 mps 641 mmHg 98%
05:00 +19°C° 0.4 mm 1 mps 641 mmHg 98%
06:00 +19°C° 0.1 mm 1 mps 642 mmHg 96%
07:00 +20°C° 0.1 mm 1 mps 642 mmHg 94%
08:00 +21°C° 0.1 mm 1 mps 642 mmHg 92%
09:00 +22°C° 0.2 mm 1 mps 643 mmHg 87%
10:00 +23°C° 0.2 mm 1 mps 643 mmHg 82%
11:00 +24°C° 0.2 mm 1 mps 643 mmHg 78%
12:00 +24°C° 0.4 mm 2 mps 642 mmHg 79%
13:00 +24°C° 0.4 mm 2 mps 641 mmHg 80%
14:00 +24°C° 0.4 mm 3 mps 641 mmHg 81%
15:00 +23°C° 0.6 mm 2 mps 641 mmHg 85%
16:00 +21°C° 0.6 mm 2 mps 640 mmHg 90%
17:00 +20°C° 0.6 mm 2 mps 640 mmHg 94%
18:00 +20°C° 2 mm 1 mps 641 mmHg 95%
19:00 +20°C° 2 mm 1 mps 641 mmHg 96%
20:00 +19°C° 2 mm 1 mps 641 mmHg 98%
21:00 +19°C° 3.4 mm 1 mps 641 mmHg 98%
22:00 +19°C° 3.4 mm 1 mps 641 mmHg 98%
23:00 +18°C° 3.4 mm 1 mps 641 mmHg 98%

27 April, Tuesday

Time Temperature Precipitation Wind Pressure Humidity
00:00 +18°C° 2.9 mm 1 mps 641 mmHg 98%
01:00 +18°C° 2.9 mm 1 mps 641 mmHg 98%
02:00 +18°C° 2.9 mm 1 mps 640 mmHg 98%
03:00 +18°C° 0.5 mm 1 mps 640 mmHg 98%
04:00 +18°C° 0.5 mm 1 mps 641 mmHg 97%
05:00 +18°C° 0.5 mm 1 mps 641 mmHg 97%
06:00 +18°C° 0.4 mm 1 mps 641 mmHg 96%
07:00 +19°C° 0.4 mm 1 mps 642 mmHg 95%
08:00 +19°C° 0.4 mm 1 mps 643 mmHg 94%
09:00 +20°C° 0.1 mm 1 mps 642 mmHg 92%
10:00 +20°C° 0.1 mm 1 mps 642 mmHg 91%
11:00 +21°C° 0.1 mm 1 mps 642 mmHg 89%
12:00 +21°C° 0.2 mm 1 mps 642 mmHg 86%
13:00 +22°C° 0.2 mm 1 mps 642 mmHg 83%
14:00 +22°C° 0.2 mm 1 mps 641 mmHg 80%
15:00 +21°C° 0 mm 1 mps 641 mmHg 84%
16:00 +19°C° 0 mm 0 mps 641 mmHg 87%
17:00 +18°C° 0 mm 0 mps 641 mmHg 91%
18:00 +18°C° 0 mm 0 mps 641 mmHg 92%
19:00 +19°C° 0 mm 1 mps 641 mmHg 93%
20:00 +18°C° 0 mm 1 mps 641 mmHg 95%
21:00 +18°C° 0 mm 1 mps 641 mmHg 93%
22:00 +17°C° 0 mm 2 mps 641 mmHg 92%
23:00 +17°C° 0 mm 2 mps 641 mmHg 90%

28 April, Wednesday

Time Temperature Precipitation Wind Pressure Humidity
00:00 +18°C° 0 mm 1 mps 640 mmHg 90%
01:00 +18°C° 0 mm 1 mps 640 mmHg 89%
02:00 +16°C° 0 mm 1 mps 640 mmHg 88%
03:00 +16°C° 0 mm 1 mps 640 mmHg 89%
04:00 +16°C° 0 mm 1 mps 640 mmHg 89%
05:00 +16°C° 0 mm 1 mps 640 mmHg 90%
06:00 +19°C° 0 mm 1 mps 641 mmHg 83%
07:00 +21°C° 0 mm 1 mps 642 mmHg 76%
08:00 +21°C° 0 mm 0 mps 642 mmHg 68%
09:00 +24°C° 0.1 mm 1 mps 642 mmHg 68%
10:00 +25°C° 0.1 mm 1 mps 642 mmHg 67%
11:00 +26°C° 0.1 mm 2 mps 642 mmHg 66%
12:00 +26°C° 0.6 mm 2 mps 642 mmHg 69%
13:00 +25°C° 0.6 mm 2 mps 641 mmHg 73%
14:00 +25°C° 0.6 mm 2 mps 641 mmHg 76%
15:00 +24°C° 0.6 mm 2 mps 640 mmHg 81%
16:00 +23°C° 0.6 mm 1 mps 640 mmHg 86%
17:00 +22°C° 0.6 mm 1 mps 640 mmHg 90%
18:00 +20°C° 0.9 mm 2 mps 641 mmHg 92%
19:00 +19°C° 0.9 mm 2 mps 641 mmHg 94%
20:00 +19°C° 0.9 mm 3 mps 641 mmHg 96%
21:00 +18°C° 0.8 mm 2 mps 641 mmHg 96%
22:00 +18°C° 0.8 mm 2 mps 641 mmHg 95%
23:00 +19°C° 0.8 mm 1 mps 641 mmHg 95%
Show more

We Need Your Consent

Meteoprog and our Service Providers may store and access personal data such as cookies, device identifiers or other similar technologies on your device and process such data to personalise content and ads, as well as provide social media features and to analyse the traffic.

  • Store and/or access information on your device

    Cookies, device identifiers or other information can be stored or accessed on your device for the purposes indicated above.

  • Personalised ads and content, ad and content measurement, audience insights, and products development

    Ads and content can be personalised based on a profile. More data can be added to better personalise ads and content. Ad and content performance can be measured. Insights about the audience who saw the ads and content can be derived. Such data can be used to develop or improve user’s experience, systems and software.

By clicking ‘I Agree’ you will allow the use of indicated cookies, device identifiers, web beacons or other similar technologies. Your settings can be changed in the browser on your device.

For certain purposes, legitimate interests may be relied on, rather than consent. You can read more about this in our Privacy and Cookie Policy.